This is the latest recevied weather packets stored in our database for station/object KC8JWT. If no packets are shown the sender has not sent any weather packets the latest 10 day(s).
| Time | Temp. | Humidity | Pressure | Rain* | Wind** | Luminosity | Snow |
|---|---|---|---|---|---|---|---|
| 1777693999 | 2.78° C | 99% | 1017.4 hPa | 0 mm | - | 0 W/m² | - |
| 1777693696 | 2.78° C | 99% | 1017.4 hPa | 0 mm | - | 0 W/m² | - |
| 1777693395 | 2.78° C | 99% | 1017.1 hPa | 0 mm | - | 0 W/m² | - |
| 1777693093 | 2.78° C | 99% | 1017.3 hPa | 0 mm | - | 0 W/m² | - |
| 1777692790 | 2.78° C | 99% | 1017.4 hPa | 0 mm | - | 0 W/m² | - |
| 1777692487 | 2.78° C | 99% | 1017.4 hPa | 0 mm | - | 0 W/m² | - |
| 1777692183 | 2.78° C | 99% | 1017.4 hPa | 0 mm | - | 0 W/m² | - |
| 1777691881 | 2.78° C | 99% | 1017.6 hPa | 0 mm | - | 0 W/m² | - |
| 1777691578 | 3.33° C | 98% | 1017.5 hPa | 0 mm | - | 0 W/m² | - |
| 1777691277 | 3.33° C | 98% | 1017.4 hPa | 0 mm | - | 0 W/m² | - |
| 1777690974 | 3.33° C | 98% | 1017.5 hPa | 0 mm | - | 0 W/m² | - |
| 1777690672 | 2.78° C | 98% | 1017.5 hPa | 0 mm | - | 0 W/m² | - |
| 1777690369 | 3.33° C | 98% | 1017.3 hPa | 0 mm | - | 0 W/m² | - |
| 1777690067 | 3.89° C | 98% | 1017 hPa | 0 mm | - | 0 W/m² | - |
| 1777689764 | 3.33° C | 97% | 1017.2 hPa | 0 mm | - | 0 W/m² | - |
| 1777689462 | 3.89° C | 97% | 1016.9 hPa | 0 mm | - | 0 W/m² | - |
| 1777689160 | 3.89° C | 97% | 1017 hPa | 0 mm | - | 0 W/m² | - |
| 1777688857 | 3.89° C | 97% | 1017.1 hPa | 0 mm | - | 0 W/m² | - |
| 1777688553 | 3.89° C | 96% | 1016.8 hPa | 0 mm | - | 0 W/m² | - |
| 1777688250 | 4.44° C | 96% | 1016.8 hPa | 0 mm | - | 0 W/m² | - |
| 1777687948 | 4.44° C | 96% | 1016.6 hPa | 0 mm | - | 0 W/m² | - |
| 1777687645 | 4.44° C | 95% | 1016.8 hPa | 0 mm | - | 0 W/m² | - |
| 1777687342 | 4.44° C | 95% | 1016.7 hPa | 0 mm | - | 0 W/m² | - |
| 1777687040 | 5° C | 95% | 1016.6 hPa | 0 mm | - | 0 W/m² | - |
| 1777686736 | 5° C | 94% | 1016.6 hPa | 0 mm | - | 0 W/m² | - |
* Rain latest hour (hover to see other rain measurements)
** Current wind speed in m/s (hover to see current wind gust speed)